Voltar ao catálogo

SL-8 R/B

AtivoLEO
NORAD 14619·ROCKET BODY·🇷🇺 Russia

Lançado Jan 5, 1984 de Plesetsk Cosmodrome

Loading…

Próximas Passagens (próximas 24 horas)

TLE

AtualizadoSource: Space-Track

Época: Sep 14, 2026, 21:14 UTC

1 14619U 84001J   26257.88486447 -.00000095  00000-0 -70167-3 0  9995
2 14619  73.9963  49.7915 0128013 289.8199 225.6945 12.24830035909016

Acompanhe SL-8 R/B em tempo real com AllMySat

Download on the App Store